Weather History for KZZV - April, 2014

Change the Weather History Date:

Friday, April 18, 2014

  Actual Average Record
Temperature  
Mean Temperature 55 °F 52 °F  
Max Temperature 70 °F 64 °F 87 °F (1976)
Min Temperature 40 °F 41 °F 25 °F (1983)
Degree Days  
Heating Degree Days 10 13  
Month to date heating degree days 248 281  
Since 1 July heating degree days 5706 5225  
Cooling Degree Days 0 0  
Month to date cooling degree days 5 0  
Year to date cooling degree days 5 1  
Growing Degree Days 4 (Base 50)    
Moisture  
Dew Point 31 °F    
Average Humidity 48    
Maximum Humidity 70    
Minimum Humidity 25    
Precipitation  
Precipitation 0.00 in 0.12 in - ()
Month to date precipitation 2.96 2.07  
Year to date precipitation 7.36 9.90  
Sea Level Pressure  
Sea Level Pressure 30.26 in    
Wind  
Wind Speed 4 mph (SSW)    
Max Wind Speed 14 mph    
Max Gust Speed 19 mph    
Visibility 10 miles    
Events      
T = Trace of Precipitation, MM = Missing Value Source: NWS Daily Summary

Daily Weather History Graph

Daily Weather History Graph

Search for Another Location

Airport or City:

Trip Planner

Search our weather history database for the weather conditions in past years. The results will help you decide how hot, cold, wet, or windy it might be!

Date:

Astronomy

Apr. 18, 2014 Rise Set
Actual Time 6:45 AM EDT 8:09 PM EDT
Civil Twilight 6:17 AM EDT 8:37 PM EDT
Nautical Twilight 5:43 AM EDT 9:11 PM EDT
Astronomical Twilight 5:07 AM EDT 9:47 PM EDT
Moon 11:52 PM EDT (4/18) 9:06 AM EDT (4/18)
Length of Visible Light 14h 20m
Length of Day
13h 23m
Waning Gibbous, 87% of the Moon is Illuminated
Apr 18
Waning Gibbous
Apr 22
Last Quarter
Apr 29
New
May 6
First Quarter
May 14
Full

Hourly Weather History & Observations

Time (EDT) Temp. Windchill Dew Point Humidity Pressure Visibility Wind Dir Wind Speed Gust Speed Precip Events Conditions
12:53 AM 42.1 °F 40.2 °F 30.0 °F 62% 30.30 in 10.0 mi South 3.5 mph - N/A   Clear
1:53 AM 39.9 °F 36.7 °F 30.0 °F 68% 30.30 in 10.0 mi SE 4.6 mph - N/A   Clear
2:53 AM 45.0 °F 41.8 °F 28.0 °F 52% 30.28 in 10.0 mi ESE 5.8 mph - N/A   Clear
3:53 AM 46.9 °F - 26.1 °F 44% 30.28 in 10.0 mi SSE 4.6 mph - N/A   Clear
4:53 AM 45.0 °F 42.6 °F 27.0 °F 49% 30.29 in 10.0 mi ESE 4.6 mph - N/A   Clear
5:53 AM 43.0 °F - 28.0 °F 56% 30.29 in 10.0 mi Calm Calm - N/A   Clear
6:53 AM 44.1 °F - 27.0 °F 51% 30.29 in 10.0 mi Calm Calm - N/A   Clear
7:53 AM 45.0 °F 43.5 °F 30.0 °F 56% 30.30 in 10.0 mi SE 3.5 mph - N/A   Clear
8:53 AM 46.9 °F - 32.0 °F 56% 30.31 in 10.0 mi Calm Calm - N/A   Clear
9:53 AM 51.1 °F - 30.0 °F 44% 30.30 in 10.0 mi South 6.9 mph - N/A   Clear
10:53 AM 54.0 °F - 28.9 °F 38% 30.31 in 10.0 mi SSW 3.5 mph - N/A   Clear
11:53 AM 60.1 °F - 32.0 °F 35% 30.30 in 10.0 mi South 4.6 mph - N/A   Clear
12:53 PM 64.0 °F - 34.0 °F 33% 30.28 in 10.0 mi Variable 4.6 mph - N/A   Clear
1:53 PM 66.9 °F - 34.0 °F 30% 30.26 in 10.0 mi Variable 6.9 mph - N/A   Clear
2:53 PM 69.1 °F - 33.1 °F 26% 30.25 in 10.0 mi Calm Calm - N/A   Clear
3:53 PM 69.1 °F - 32.0 °F 25% 30.23 in 10.0 mi NW 6.9 mph - N/A   Clear
4:53 PM 68.0 °F - 32.0 °F 26% 30.22 in 10.0 mi West 8.1 mph - N/A   Clear
5:53 PM 68.0 °F - 33.1 °F 27% 30.21 in 10.0 mi West 6.9 mph - N/A   Clear
6:53 PM 66.0 °F - 34.0 °F 30% 30.21 in 10.0 mi West 8.1 mph - N/A   Clear
7:53 PM 63.0 °F - 34.0 °F 34% 30.20 in 10.0 mi NW 3.5 mph - N/A   Clear
8:53 PM 61.0 °F - 34.0 °F 36% 30.21 in 10.0 mi NNW 3.5 mph - N/A   Scattered Clouds
9:53 PM 57.0 °F - 35.1 °F 44% 30.22 in 10.0 mi NNW 3.5 mph - N/A   Clear
11:53 PM 48.9 °F - 37.0 °F 64% 30.23 in 10.0 mi Calm Calm - N/A   Clear